Flag for U.S.A. Weather past 2 weeks in Cleveland, Ohio, U.S.A.

Now
68 °F

Thunderstorms. Fog.


Feels Like: 68 °F
Forecast: 71 / 86 °F
Wind: 16 mph from South

Location: Cleveland-Hopkins International Airport

Current Time: Sep 4, 2015 at 8:50:24 AM

Latest Report: Sep 4, 2015 at 8:04 AM


Visibility: 3 mi

Pressure: 30.04 "Hg

Humidity: 90%

Dew point: 65 °F

Location of ClevelandLocation

Historic Weather in Cleveland — Graph

°F

Cleveland temperature yesterday

Maximum temperature yesterday: 88 °F (at 1:51 PM)
Minimum temperature yesterday: 68 °F (at 11:51 PM)
Average temperature yesterday: 77 °F

Past Weeks' High & Low Weather Summary

 TemperatureHumidityPressure
High89 °F (Sep 2, 4:51 PM)93% (Aug 26, 12:51 AM)30.23 "Hg (Aug 26, 12:51 AM)
Low52 °F (Aug 28, 6:51 AM)35% (Aug 23, 3:51 PM)29.80 "Hg (Aug 20, 7:04 AM)
Average69 °F71%30.06 "Hg
* Reported Aug 20 7:04 AM — Sep 4 7:51 AM, Cleveland, Weather by CustomWeather, © 2015

Note: Actual official high and low records may vary slightly from our data, if they occured in-between our weather recording intervals... More about our weather records

Advertising

Cleveland weather history for previous 24 hours

 ConditionsComfort  
Time TempWeatherWind HumidityBarometerVisibility
7:51 AM
Fri, Sep 4
67 °FStrong thunderstorms. Fog.12 mph93%30.04 "Hg2 mi
7:00 AM66 °FThunderstorms. Fog.15 mph93%30.03 "Hg5 mi
5:51 AM68 °FThunderstorms. Mostly cloudy.6 mph87%29.99 "Hg10 mi
4:51 AM68 °FThunderstorms. Overcast.5 mph93%30.00 "Hg9 mi
3:51 AM67 °FLight rain. Mostly cloudy.7 mph93%30.00 "Hg10 mi
2:51 AM67 °FThunderstorms. Mostly cloudy.7 mph93%30.00 "Hg10 mi
1:51 AM68 °FThunderstorms. Mostly cloudy.7 mph90%29.99 "Hg10 mi
12:51 AM68 °FLight rain. Mostly cloudy.7 mph90%29.99 "Hg10 mi
11:51 PM
Thu, Sep 3
68 °FThunderstorms. Mostly cloudy.12 mph90%30.02 "Hg10 mi
10:51 PM69 °FThunderstorms. Overcast.15 mph87%30.01 "Hg10 mi
9:51 PM73 °FThunderstorms. Mostly cloudy.8 mph76%29.98 "Hg10 mi
8:51 PM73 °FBroken clouds.7 mph79%29.94 "Hg10 mi
7:51 PM75 °FBroken clouds.3 mph66%29.93 "Hg10 mi
6:51 PM76 °FThunderstorms. Mostly cloudy.7 mph69%29.98 "Hg10 mi
5:51 PM82 °FThunderstorms. Broken clouds.17 mph65%29.95 "Hg10 mi
4:51 PM87 °FScattered clouds.10 mph50%29.92 "Hg10 mi
3:51 PM88 °FPassing clouds.9 mph50%29.93 "Hg10 mi
2:51 PM88 °FScattered clouds.8 mph50%29.94 "Hg10 mi
1:51 PM88 °FScattered clouds.7 mph52%29.96 "Hg10 mi
12:51 PM87 °FPassing clouds.9 mph57%29.97 "Hg10 mi
11:51 AM85 °FScattered clouds.5 mph59%29.98 "Hg10 mi
10:51 AM82 °FPassing clouds.6 mph67%29.98 "Hg10 mi
9:51 AM77 °FScattered clouds.6 mph77%29.99 "Hg10 mi
8:51 AM72 °FPartly sunny.5 mph87%30.00 "Hg10 mi
Weather by CustomWeather, © 2015

See weather overviewHow to use our weather pages